| time (UTC) | temp F | wind direction | speed MPH | gust MPH | rain 1hr in | rain 24hr in | rain mn in | humidity % | barometer mb |
| 20260901133621 | 83 | 112 | 3.0 | 6.0 | 0.00 | 0.00 | 0.00 | 7 | 1014.9 |
| 20260901133156 | 82 | 90 | 4.0 | 6.0 | 0.00 | 0.00 | 0.00 | 7 | 1014.8 |
| 20260901132701 | 82 | 90 | 5.0 | 9.0 | 0.00 | 0.00 | 0.00 | 7 | 1015.1 |
| 20260901132312 | 82 | 45 | 7.0 | 9.0 | 0.00 | 0.00 | 0.00 | 7 | 1015.1 |
| 20260901131850 | 82 | 112 | 6.0 | 9.0 | 0.00 | 0.00 | 0.00 | 7 | 1015.0 |
| 20260901131436 | 82 | 90 | 7.0 | 11.0 | 0.00 | 0.00 | 0.00 | 7 | 1014.8 |
| 20260901131007 | 82 | 67 | 6.0 | 10.0 | 0.00 | 0.00 | 0.00 | 7 | 1015.1 |
| 20260901130548 | 82 | 67 | 3.0 | 6.0 | 0.00 | 0.00 | 0.00 | 7 | 1015.2 |
| 20260901130122 | 82 | 90 | 7.0 | 10.0 | 0.00 | 0.00 | 0.00 | 7 | 1015.0 |
| 20260901125659 | 83 | 112 | 7.0 | 10.0 | 0.00 | 0.00 | 0.00 | 7 | 1014.8 |
| 20260901125657 | 83 | 112 | 7.0 | 10.0 | 0.00 | 0.00 | 0.00 | 7 | 1014.8 |
| 20260901125523 | 83 | 112 | 7.0 | 10.0 | 0.00 | 0.00 | 0.00 | 7 | 1014.8 |
| 20260901125041 | 84 | 112 | 7.0 | 11.0 | 0.00 | 0.00 | 0.00 | 6 | 1014.6 |
| 20260901124548 | 84 | 112 | 9.0 | 12.0 | 0.00 | 0.00 | 0.00 | 6 | 1014.6 |
| 20260901124123 | 84 | 90 | 9.0 | 12.0 | 0.00 | 0.00 | 0.00 | 6 | 1014.7 |
| 20260901123703 | 84 | 67 | 6.0 | 8.0 | 0.00 | 0.00 | 0.00 | 6 | 1014.7 |
| 20260901123238 | 83 | 67 | 7.0 | 10.0 | 0.00 | 0.00 | 0.00 | 6 | 1014.5 |
| 20260901122743 | 84 | 67 | 6.0 | 10.0 | 0.00 | 0.00 | 0.00 | 6 | 1014.5 |
| 20260901122503 | 84 | 90 | 7.0 | 12.0 | 0.00 | 0.00 | 0.00 | 6 | 1014.4 |
| 20260901122345 | 84 | 90 | 4.0 | 6.0 | 0.00 | 0.00 | 0.00 | 6 | 1014.4 |
| 20260901121929 | 83 | 67 | 10.0 | 13.0 | 0.00 | 0.00 | 0.00 | 6 | 1014.5 |
| 20260901121517 | 84 | 112 | 9.0 | 12.0 | 0.00 | 0.00 | 0.00 | 6 | 1014.5 |
| 20260901121032 | 83 | 90 | 8.0 | 11.0 | 0.00 | 0.00 | 0.00 | 6 | 1014.7 |
| 20260901120649 | 84 | 90 | 6.0 | 8.0 | 0.00 | 0.00 | 0.00 | 7 | 1014.8 |
| 20260901120615 | 84 | 90 | 6.0 | 8.0 | 0.00 | 0.00 | 0.00 | 7 | 1014.8 |
| 20260901120149 | 84 | 90 | 6.0 | 9.0 | 0.00 | 0.00 | 0.00 | 6 | 1015.0 |
| 20260901115656 | 83 | 90 | 7.0 | 10.0 | 0.00 | 0.00 | 0.00 | 7 | 1015.0 |
| 20260901115215 | 83 | 67 | 7.0 | 10.0 | 0.00 | 0.00 | 0.00 | 7 | 1015.0 |
| 20260901114753 | 83 | 67 | 7.0 | 9.0 | 0.00 | 0.00 | 0.00 | 7 | 1014.9 |
| 20260901114339 | 83 | 90 | 4.0 | 6.0 | 0.00 | 0.00 | 0.00 | 7 | 1015.1 |
| 20260901113910 | 83 | 90 | 5.0 | 6.0 | 0.00 | 0.00 | 0.00 | 7 | 1015.0 |
| 20260901113508 | 83 | 112 | 7.0 | 9.0 | 0.00 | 0.00 | 0.00 | 6 | 1015.2 |
| 20260901113451 | 83 | 67 | 6.0 | 9.0 | 0.00 | 0.00 | 0.00 | 7 | 1015.4 |
| 20260901113025 | 83 | 67 | 5.0 | 6.0 | 0.00 | 0.00 | 0.00 | 7 | 1015.4 |
| 20260901112601 | 83 | 90 | 3.0 | 6.0 | 0.00 | 0.00 | 0.00 | 7 | 1015.6 |
| 20260901112046 | 82 | 135 | 5.0 | 8.0 | 0.00 | 0.00 | 0.00 | 7 | 1015.5 |
| 20260901111556 | 82 | 90 | 6.0 | 9.0 | 0.00 | 0.00 | 0.00 | 7 | 1015.5 |
| 20260901111134 | 83 | 112 | 5.0 | 6.0 | 0.00 | 0.00 | 0.00 | 7 | 1015.4 |
| 20260901110655 | 82 | 90 | 4.0 | 6.0 | 0.00 | 0.00 | 0.00 | 7 | 1015.4 |
| 20260901110211 | 82 | 112 | 4.0 | 8.0 | 0.00 | 0.00 | 0.00 | 7 | 1015.7 |
| 20260901105746 | 82 | 112 | 5.0 | 8.0 | 0.00 | 0.00 | 0.00 | 7 | 1015.3 |
| 20260901105514 | 82 | 112 | 6.0 | 9.0 | 0.00 | 0.00 | 0.00 | 7 | 1015.3 |
| 20260901105051 | 82 | 90 | 7.0 | 10.0 | 0.00 | 0.00 | 0.00 | 7 | 1015.3 |
| 20260901104601 | 82 | 90 | 10.0 | 13.0 | 0.00 | 0.00 | 0.00 | 7 | 1015.2 |
| 20260901104132 | 82 | 90 | 6.0 | 8.0 | 0.00 | 0.00 | 0.00 | 7 | 1015.3 |
| 20260901103713 | 83 | 67 | 6.0 | 9.0 | 0.00 | 0.00 | 0.00 | 7 | 1015.5 |
| 20260901103249 | 84 | 90 | 6.0 | 9.0 | 0.00 | 0.00 | 0.00 | 7 | 1015.5 |
| 20260901102754 | 84 | 135 | 9.0 | 12.0 | 0.00 | 0.00 | 0.00 | 7 | 1015.5 |
| 20260901102348 | 84 | 67 | 7.0 | 10.0 | 0.00 | 0.00 | 0.00 | 7 | 1015.6 |
| 20260901101933 | 83 | 67 | 9.0 | 11.0 | 0.00 | 0.00 | 0.00 | 7 | 1015.6 |
| 20260901101522 | 82 | 90 | 6.0 | 8.0 | 0.00 | 0.00 | 0.00 | 7 | 1015.7 |
| 20260901101023 | 82 | 112 | 5.0 | 9.0 | 0.00 | 0.00 | 0.00 | 7 | 1015.6 |
| 20260901100533 | 82 | 90 | 9.0 | 13.0 | 0.00 | 0.00 | 0.00 | 7 | 1015.6 |
| 20260901100105 | 82 | 90 | 5.0 | 8.0 | 0.00 | 0.00 | 0.00 | 7 | 1015.6 |
| 20260901095658 | 82 | 67 | 7.0 | 9.0 | 0.00 | 0.00 | 0.00 | 7 | 1015.7 |
| 20260901095455 | 82 | 67 | 5.0 | 8.0 | 0.00 | 0.00 | 0.00 | 7 | 1015.7 |
| 20260901095036 | 83 | 112 | 8.0 | 10.0 | 0.00 | 0.00 | 0.00 | 7 | 1015.6 |
| 20260901094616 | 83 | 112 | 6.0 | 9.0 | 0.00 | 0.00 | 0.00 | 7 | 1015.7 |
| 20260901094132 | 82 | 90 | 8.0 | 12.0 | 0.00 | 0.00 | 0.00 | 7 | 1015.7 |
| 20260901093715 | 82 | 112 | 8.0 | 10.0 | 0.00 | 0.00 | 0.00 | 7 | 1015.5 |
| 20260901093251 | 82 | 90 | 6.0 | 10.0 | 0.00 | 0.00 | 0.00 | 7 | 1015.6 |
| 20260901092755 | 82 | 112 | 3.0 | 6.0 | 0.00 | 0.00 | 0.00 | 7 | 1015.6 |
| 20260901092311 | 82 | 90 | 6.0 | 9.0 | 0.00 | 0.00 | 0.00 | 7 | 1015.6 |
| 20260901091844 | 83 | 112 | 3.0 | 4.0 | 0.00 | 0.00 | 0.00 | 7 | 1015.6 |
| 20260901091432 | 84 | 90 | 2.0 | 4.0 | 0.00 | 0.00 | 0.00 | 7 | 1015.7 |
| 20260901091001 | 84 | 270 | 1.0 | 3.0 | 0.00 | 0.00 | 0.00 | 7 | 1015.7 |
| 20260901090559 | 83 | 112 | 4.0 | 6.0 | 0.00 | 0.00 | 0.00 | 7 | 1015.6 |
| 20260901085651 | 82 | 90 | 4.0 | 6.0 | 0.00 | 0.00 | 0.00 | 7 | 1015.6 |
| 20260901085449 | 82 | 90 | 5.0 | 6.0 | 0.00 | 0.00 | 0.00 | 7 | 1015.4 |
| 20260901085015 | 82 | 90 | 3.0 | 4.0 | 0.00 | 0.00 | 0.00 | 8 | 1015.5 |
| 20260901084740 | 81 | 112 | 3.0 | 6.0 | 0.00 | 0.00 | 0.00 | 8 | 1015.6 |
| 20260901084552 | 81 | 112 | 5.0 | 8.0 | 0.00 | 0.00 | 0.00 | 8 | 1015.6 |
| 20260901084127 | 81 | 112 | 3.0 | 4.0 | 0.00 | 0.00 | 0.00 | 8 | 1015.6 |
| 20260901083742 | 80 | 67 | 2.0 | 3.0 | 0.00 | 0.00 | 0.00 | 8 | 1015.5 |
| 20260901083708 | 80 | 67 | 2.0 | 3.0 | 0.00 | 0.00 | 0.00 | 8 | 1015.5 |
| 20260901083243 | 80 | 45 | 0.0 | 2.0 | 0.00 | 0.00 | 0.00 | 8 | 1015.6 |
| 20260901082748 | 80 | 90 | 2.0 | 3.0 | 0.00 | 0.00 | 0.00 | 8 | 1015.2 |
| 20260901082329 | 80 | 112 | 3.0 | 4.0 | 0.00 | 0.00 | 0.00 | 8 | 1015.2 |
| 20260901082306 | 81 | 112 | 3.0 | 4.0 | 0.00 | 0.00 | 0.00 | 8 | 1015.3 |
| 20260901081840 | 82 | 22 | 0.0 | 1.0 | 0.00 | 0.00 | 0.00 | 8 | 1015.3 |
| 20260901081428 | 82 | 0 | 0.0 | 0.0 | 0.00 | 0.00 | 0.00 | 8 | 1015.4 |
| 20260901081409 | 81 | 67 | 0.0 | 2.0 | 0.00 | 0.00 | 0.00 | 8 | 1015.3 |
| 20260901081008 | 80 | 0 | 0.0 | 1.0 | 0.00 | 0.00 | 0.00 | 8 | 1015.4 |
| 20260901080549 | 80 | 0 | 0.0 | 0.0 | 0.00 | 0.00 | 0.00 | 8 | 1015.1 |
| 20260901080122 | 79 | 0 | 0.0 | 0.0 | 0.00 | 0.00 | 0.00 | 8 | 1014.8 |
| 20260901075659 | 79 | 0 | 0.0 | 0.0 | 0.00 | 0.00 | 0.00 | 8 | 1015.2 |
| 20260901075657 | 79 | 0 | 0.0 | 0.0 | 0.00 | 0.00 | 0.00 | 8 | 1015.2 |
| 20260901075532 | 79 | 0 | 0.0 | 0.0 | 0.00 | 0.00 | 0.00 | 8 | 1015.2 |
| 20260901075456 | 79 | 0 | 0.0 | 0.0 | 0.00 | 0.00 | 0.00 | 8 | 1015.0 |
| 20260901075005 | 79 | 157 | 0.0 | 1.0 | 0.00 | 0.00 | 0.00 | 8 | 1015.3 |
| 20260901074554 | 78 | 157 | 0.0 | 2.0 | 0.00 | 0.00 | 0.00 | 8 | 1015.3 |
| 20260901074522 | 78 | 157 | 0.0 | 2.0 | 0.00 | 0.00 | 0.00 | 8 | 1015.3 |
| 20260901074120 | 78 | 67 | 1.0 | 2.0 | 0.00 | 0.00 | 0.00 | 9 | 1015.2 |
| 20260901073656 | 78 | 0 | 0.0 | 0.0 | 0.00 | 0.00 | 0.00 | 9 | 1015.1 |
| 20260901073201 | 78 | 0 | 0.0 | 1.0 | 0.00 | 0.00 | 0.00 | 9 | 1015.1 |
| 20260901072704 | 77 | 0 | 1.0 | 2.0 | 0.00 | 0.00 | 0.00 | 9 | 1015.2 |
| 20260901072408 | 77 | 45 | 1.0 | 2.0 | 0.00 | 0.00 | 0.00 | 9 | 1015.2 |
| 20260901072312 | 77 | 45 | 1.0 | 2.0 | 0.00 | 0.00 | 0.00 | 9 | 1015.2 |
| 20260901071913 | 76 | 0 | 1.0 | 2.0 | 0.00 | 0.00 | 0.00 | 9 | 1015.2 |
| 20260901071437 | 76 | 315 | 1.0 | 2.0 | 0.00 | 0.00 | 0.00 | 9 | 1015.0 |
| 20260901071007 | 76 | 337 | 1.0 | 2.0 | 0.00 | 0.00 | 0.00 | 9 | 1015.1 |
| 20260901070549 | 76 | 315 | 1.0 | 2.0 | 0.00 | 0.00 | 0.00 | 9 | 1015.0 |
| 20260901070122 | 75 | 0 | 0.0 | 0.0 | 0.00 | 0.00 | 0.00 | 9 | 1014.9 |
| 20260901065657 | 75 | 292 | 0.0 | 1.0 | 0.00 | 0.00 | 0.00 | 9 | 1014.7 |
| 20260901065151 | 75 | 0 | 0.0 | 1.0 | 0.00 | 0.00 | 0.00 | 9 | 1014.6 |
| 20260901064738 | 75 | 247 | 0.0 | 1.0 | 0.00 | 0.00 | 0.00 | 9 | 1014.5 |
| 20260901064703 | 75 | 247 | 0.0 | 1.0 | 0.00 | 0.00 | 0.00 | 9 | 1014.5 |
| 20260901064232 | 75 | 315 | 1.0 | 2.0 | 0.00 | 0.00 | 0.00 | 9 | 1014.4 |
| 20260901063849 | 75 | 315 | 3.0 | 3.0 | 0.00 | 0.00 | 0.00 | 9 | 1014.5 |
| 20260901063815 | 75 | 315 | 3.0 | 3.0 | 0.00 | 0.00 | 0.00 | 9 | 1014.5 |
| 20260901063350 | 75 | 315 | 2.0 | 2.0 | 0.00 | 0.00 | 0.00 | 9 | 1014.5 |
| 20260901062855 | 75 | 0 | 0.0 | 1.0 | 0.00 | 0.00 | 0.00 | 9 | 1014.3 |
| 20260901062437 | 75 | 90 | 1.0 | 2.0 | 0.00 | 0.00 | 0.00 | 9 | 1014.4 |
| 20260901062012 | 75 | 0 | 0.0 | 1.0 | 0.00 | 0.00 | 0.00 | 9 | 1014.2 |
| 20260901061528 | 74 | 292 | 0.0 | 1.0 | 0.00 | 0.00 | 0.00 | 9 | 1014.4 |
| 20260901061053 | 74 | 270 | 1.0 | 2.0 | 0.00 | 0.00 | 0.00 | 9 | 1014.4 |
| 20260901060606 | 74 | 0 | 0.0 | 2.0 | 0.00 | 0.00 | 0.00 | 9 | 1014.7 |
| 20260901060534 | 74 | 0 | 0.0 | 2.0 | 0.00 | 0.00 | 0.00 | 9 | 1014.7 |
| 20260901060118 | 74 | 0 | 0.0 | 1.0 | 0.00 | 0.00 | 0.00 | 9 | 1014.4 |
| 20260901055704 | 74 | 0 | 0.0 | 0.0 | 0.00 | 0.00 | 0.00 | 9 | 1014.3 |
| 20260901055453 | 74 | 0 | 0.0 | 0.0 | 0.00 | 0.00 | 0.00 | 9 | 1014.3 |
| 20260901055422 | 74 | 0 | 0.0 | 0.0 | 0.00 | 0.00 | 0.00 | 9 | 1014.3 |
| 20260901054949 | 74 | 292 | 0.0 | 1.0 | 0.00 | 0.00 | 0.00 | 9 | 1014.2 |
| 20260901054544 | 74 | 292 | 3.0 | 3.0 | 0.00 | 0.00 | 0.00 | 9 | 1014.5 |
| 20260901054502 | 74 | 270 | 3.0 | 4.0 | 0.00 | 0.00 | 0.00 | 9 | 1014.4 |
| 20260901054105 | 74 | 292 | 3.0 | 3.0 | 0.00 | 0.00 | 0.00 | 9 | 1014.4 |
| 20260901053648 | 74 | 270 | 3.0 | 6.0 | 0.00 | 0.00 | 0.00 | 9 | 1014.3 |
| 20260901053617 | 74 | 270 | 3.0 | 6.0 | 0.00 | 0.00 | 0.00 | 9 | 1014.3 |
| 20260901053148 | 74 | 292 | 2.0 | 3.0 | 0.00 | 0.00 | 0.00 | 9 | 1013.9 |
| 20260901052658 | 74 | 292 | 3.0 | 4.0 | 0.00 | 0.00 | 0.00 | 9 | 1014.2 |
| 20260901052411 | 74 | 67 | 1.0 | 2.0 | 0.00 | 0.00 | 0.00 | 9 | 1013.6 |
| 20260901052340 | 74 | 67 | 1.0 | 2.0 | 0.00 | 0.00 | 0.00 | 9 | 1013.6 |
| 20260901051925 | 73 | 67 | 1.0 | 2.0 | 0.00 | 0.00 | 0.00 | 9 | 1013.8 |
| 20260901051513 | 73 | 337 | 1.0 | 1.0 | 0.00 | 0.00 | 0.00 | 9 | 1014.0 |
| 20260901051028 | 73 | 0 | 0.0 | 1.0 | 0.00 | 0.00 | 0.00 | 9 | 1014.0 |
| 20260901050612 | 73 | 22 | 0.0 | 1.0 | 0.00 | 0.00 | 0.00 | 9 | 1014.1 |
| 20260901050147 | 73 | 337 | 0.0 | 2.0 | 0.00 | 0.00 | 0.00 | 9 | 1014.1 |
| 20260901045653 | 74 | 90 | 1.0 | 2.0 | 0.00 | 0.00 | 0.00 | 9 | 1013.8 |
| 20260901045451 | 74 | 90 | 1.0 | 2.0 | 0.00 | 0.00 | 0.00 | 9 | 1013.8 |
| 20260901044955 | 74 | 270 | 0.0 | 2.0 | 0.00 | 0.00 | 0.00 | 9 | 1013.7 |
| 20260901044518 | 74 | 0 | 0.0 | 1.0 | 0.00 | 0.00 | 0.00 | 9 | 1013.7 |
| 20260901044056 | 74 | 67 | 0.0 | 2.0 | 0.00 | 0.00 | 0.00 | 9 | 1013.8 |
| 20260901043609 | 73 | 67 | 0.0 | 2.0 | 0.00 | 0.00 | 0.00 | 9 | 1013.6 |
| 20260901043139 | 74 | 270 | 3.0 | 3.0 | 0.00 | 0.00 | 0.00 | 9 | 1013.6 |
| 20260901042649 | 74 | 315 | 1.0 | 2.0 | 0.00 | 0.00 | 0.00 | 9 | 1013.7 |
| 20260901042402 | 74 | 315 | 1.0 | 2.0 | 0.00 | 0.00 | 0.00 | 9 | 1013.7 |
| 20260901042317 | 74 | 315 | 1.0 | 2.0 | 0.00 | 0.00 | 0.00 | 9 | 1013.6 |
| 20260901041931 | 74 | 315 | 1.0 | 2.0 | 0.00 | 0.00 | 0.00 | 9 | 1013.6 |
| 20260901041506 | 74 | 292 | 2.0 | 3.0 | 0.00 | 0.00 | 0.00 | 9 | 1013.6 |
| 20260901041441 | 74 | 292 | 2.0 | 3.0 | 0.00 | 0.00 | 0.00 | 9 | 1013.7 |
| 20260901041041 | 74 | 292 | 1.0 | 2.0 | 0.00 | 0.00 | 0.00 | 9 | 1014.0 |
| 20260901040552 | 74 | 292 | 1.0 | 2.0 | 0.00 | 0.00 | 0.00 | 9 | 1013.8 |
| 20260901040126 | 74 | 0 | 0.0 | 0.0 | 0.00 | 0.00 | 0.00 | 9 | 1014.2 |
| 20260901035701 | 74 | 0 | 0.0 | 1.0 | 0.00 | 0.00 | 0.00 | 9 | 1014.1 |
| 20260901035412 | 74 | 247 | 0.0 | 1.0 | 0.00 | 0.00 | 0.00 | 9 | 1014.1 |
| 20260901034958 | 74 | 0 | 0.0 | 0.0 | 0.00 | 0.00 | 0.00 | 9 | 1014.2 |
| 20260901034524 | 74 | 292 | 2.0 | 3.0 | 0.00 | 0.00 | 0.00 | 9 | 1014.1 |
| 20260901034505 | 74 | 292 | 2.0 | 3.0 | 0.00 | 0.00 | 0.00 | 9 | 1014.2 |
| 20260901034036 | 74 | 292 | 2.0 | 2.0 | 0.00 | 0.00 | 0.00 | 9 | 1014.1 |
| 20260901033653 | 74 | 292 | 2.0 | 3.0 | 0.00 | 0.00 | 0.00 | 9 | 1014.2 |
| 20260901033618 | 74 | 292 | 2.0 | 3.0 | 0.00 | 0.00 | 0.00 | 9 | 1014.2 |
| 20260901033153 | 74 | 292 | 1.0 | 1.0 | 0.00 | 0.00 | 0.00 | 9 | 1014.1 |
| 20260901032659 | 74 | 292 | 1.0 | 2.0 | 0.00 | 0.00 | 0.00 | 9 | 1014.1 |
| 20260901032436 | 74 | 292 | 0.0 | 1.0 | 0.00 | 0.00 | 0.00 | 9 | 1014.3 |
| 20260901032001 | 74 | 270 | 2.0 | 2.0 | 0.00 | 0.00 | 0.00 | 9 | 1014.3 |
| 20260901031652 | 74 | 292 | 2.0 | 2.0 | 0.00 | 0.00 | 0.00 | 9 | 1014.3 |
| 20260901031508 | 74 | 292 | 1.0 | 1.0 | 0.00 | 0.00 | 0.00 | 9 | 1014.3 |
| 20260901031038 | 74 | 292 | 0.0 | 1.0 | 0.00 | 0.00 | 0.00 | 9 | 1014.2 |
| 20260901030653 | 74 | 292 | 0.0 | 2.0 | 0.00 | 0.00 | 0.00 | 9 | 1014.2 |
| 20260901030621 | 74 | 292 | 0.0 | 2.0 | 0.00 | 0.00 | 0.00 | 9 | 1014.2 |
| 20260901030156 | 74 | 292 | 0.0 | 1.0 | 0.00 | 0.00 | 0.00 | 9 | 1014.1 |
| 20260901025702 | 74 | 292 | 1.0 | 2.0 | 0.00 | 0.00 | 0.00 | 9 | 1014.2 |
| 20260901025242 | 74 | 270 | 2.0 | 3.0 | 0.00 | 0.00 | 0.00 | 9 | 1014.2 |
| 20260901024901 | 74 | 270 | 2.0 | 3.0 | 0.00 | 0.00 | 0.00 | 9 | 1014.1 |
| 20260901024419 | 74 | 270 | 0.0 | 1.0 | 0.00 | 0.00 | 0.00 | 9 | 1014.2 |
| 20260901024402 | 74 | 270 | 1.0 | 2.0 | 0.00 | 0.00 | 0.00 | 9 | 1014.3 |
| 20260901024014 | 74 | 270 | 2.0 | 3.0 | 0.00 | 0.00 | 0.00 | 9 | 1014.5 |
| 20260901023600 | 74 | 270 | 2.0 | 3.0 | 0.00 | 0.00 | 0.00 | 9 | 1014.3 |
| 20260901023528 | 74 | 292 | 2.0 | 2.0 | 0.00 | 0.00 | 0.00 | 9 | 1014.3 |
| 20260901023111 | 74 | 292 | 0.0 | 1.0 | 0.00 | 0.00 | 0.00 | 9 | 1014.3 |
| 20260901022701 | 74 | 315 | 3.0 | 4.0 | 0.00 | 0.00 | 0.00 | 9 | 1014.3 |
| 20260901022435 | 74 | 292 | 2.0 | 3.0 | 0.00 | 0.00 | 0.00 | 9 | 1014.4 |
| 20260901021940 | 73 | 292 | 2.0 | 3.0 | 0.00 | 0.00 | 0.00 | 9 | 1014.4 |
| 20260901021522 | 73 | 292 | 2.0 | 2.0 | 0.00 | 0.00 | 0.00 | 9 | 1014.6 |
| 20260901021037 | 73 | 292 | 1.0 | 2.0 | 0.00 | 0.00 | 0.00 | 9 | 1014.4 |
| 20260901020620 | 73 | 270 | 1.0 | 2.0 | 0.00 | 0.00 | 0.00 | 9 | 1014.3 |
| 20260901020155 | 74 | 292 | 0.0 | 1.0 | 0.00 | 0.00 | 0.00 | 9 | 1014.4 |
| 20260901015700 | 74 | 292 | 0.0 | 1.0 | 0.00 | 0.00 | 0.00 | 9 | 1014.4 |
| 20260901015350 | 74 | 292 | 0.0 | 1.0 | 0.00 | 0.00 | 0.00 | 9 | 1014.6 |
| 20260901015259 | 74 | 292 | 2.0 | 3.0 | 0.00 | 0.00 | 0.00 | 9 | 1014.5 |
| 20260901014906 | 74 | 292 | 2.0 | 3.0 | 0.00 | 0.00 | 0.00 | 9 | 1014.5 |
| 20260901014448 | 73 | 292 | 2.0 | 2.0 | 0.00 | 0.00 | 0.00 | 9 | 1014.6 |
| 20260901014336 | 73 | 292 | 2.0 | 2.0 | 0.00 | 0.00 | 0.00 | 9 | 1014.7 |
| 20260901014030 | 73 | 292 | 2.0 | 3.0 | 0.00 | 0.00 | 0.00 | 9 | 1014.7 |
| 20260901013510 | 74 | 292 | 1.0 | 2.0 | 0.00 | 0.00 | 0.00 | 9 | 1014.9 |
| 20260901013103 | 74 | 292 | 1.0 | 2.0 | 0.00 | 0.00 | 0.00 | 9 | 1014.9 |
| 20260901012655 | 74 | 292 | 2.0 | 3.0 | 0.00 | 0.00 | 0.00 | 9 | 1014.8 |
| 20260901012441 | 74 | 292 | 2.0 | 3.0 | 0.00 | 0.00 | 0.00 | 9 | 1014.8 |
| 20260901012000 | 74 | 315 | 2.0 | 2.0 | 0.00 | 0.00 | 0.00 | 9 | 1014.9 |
| 20260901011506 | 74 | 0 | 0.0 | 0.0 | 0.00 | 0.00 | 0.00 | 9 | 1014.8 |
| 20260901011040 | 74 | 292 | 1.0 | 2.0 | 0.00 | 0.00 | 0.00 | 9 | 1014.9 |
| 20260901010621 | 75 | 292 | 1.0 | 2.0 | 0.00 | 0.00 | 0.00 | 9 | 1014.9 |
| 20260901010156 | 75 | 292 | 2.0 | 3.0 | 0.00 | 0.00 | 0.00 | 9 | 1015.0 |
| 20260901005701 | 74 | 292 | 1.0 | 1.0 | 0.00 | 0.00 | 0.00 | 9 | 1015.0 |
| 20260901005439 | 75 | 292 | 1.0 | 2.0 | 0.00 | 0.00 | 0.00 | 9 | 1015.0 |
| 20260901004943 | 75 | 270 | 2.0 | 2.0 | 0.00 | 0.00 | 0.00 | 9 | 1014.9 |
| 20260901004648 | 75 | 292 | 2.0 | 2.0 | 0.00 | 0.00 | 0.00 | 9 | 1015.1 |
| 20260901004500 | 75 | 292 | 1.0 | 2.0 | 0.00 | 0.00 | 0.00 | 9 | 1015.2 |
| 20260901004035 | 75 | 292 | 1.0 | 2.0 | 0.00 | 0.00 | 0.00 | 9 | 1015.2 |
| 20260901003649 | 75 | 270 | 2.0 | 2.0 | 0.00 | 0.00 | 0.00 | 9 | 1015.3 |
| 20260901003616 | 75 | 270 | 2.0 | 2.0 | 0.00 | 0.00 | 0.00 | 9 | 1015.3 |
| 20260901003151 | 75 | 270 | 2.0 | 3.0 | 0.00 | 0.00 | 0.00 | 9 | 1015.1 |
| 20260901002658 | 75 | 292 | 2.0 | 2.0 | 0.00 | 0.00 | 0.00 | 9 | 1015.0 |
| 20260901002656 | 75 | 292 | 2.0 | 2.0 | 0.00 | 0.00 | 0.00 | 9 | 1015.0 |
| 20260901002501 | 75 | 270 | 3.0 | 3.0 | 0.00 | 0.00 | 0.00 | 9 | 1015.0 |
| 20260901002354 | 75 | 270 | 3.0 | 3.0 | 0.00 | 0.00 | 0.00 | 9 | 1015.2 |
| 20260901001919 | 75 | 315 | 1.0 | 2.0 | 0.00 | 0.00 | 0.00 | 9 | 1015.1 |
| 20260901001534 | 75 | 315 | 1.0 | 2.0 | 0.00 | 0.00 | 0.00 | 9 | 1015.2 |
| 20260901001457 | 75 | 315 | 1.0 | 2.0 | 0.00 | 0.00 | 0.00 | 9 | 1015.2 |
| 20260901001032 | 75 | 270 | 1.0 | 2.0 | 0.00 | 0.00 | 0.00 | 9 | 1015.1 |
| 20260901000646 | 75 | 292 | 2.0 | 3.0 | 0.00 | 0.00 | 0.00 | 9 | 1015.2 |
| 20260901000612 | 75 | 292 | 2.0 | 3.0 | 0.00 | 0.00 | 0.00 | 9 | 1015.2 |
| 20260901000148 | 75 | 292 | 2.0 | 2.0 | 0.00 | 0.00 | 0.00 | 9 | 1015.2 |
| 20260831235652 | 75 | 292 | 2.0 | 2.0 | 0.00 | 0.00 | 0.00 | 9 | 1015.0 |
| 20260831235102 | 75 | 270 | 2.0 | 3.0 | 0.00 | 0.00 | 0.00 | 9 | 1015.2 |
| 20260831234620 | 75 | 292 | 2.0 | 3.0 | 0.00 | 0.00 | 0.00 | 9 | 1015.3 |
| 20260831234200 | 76 | 180 | 2.0 | 2.0 | 0.00 | 0.00 | 0.00 | 9 | 1015.1 |
| 20260831233712 | 76 | 0 | 0.0 | 0.0 | 0.00 | 0.00 | 0.00 | 9 | 1015.1 |
| 20260831233243 | 76 | 0 | 0.0 | 0.0 | 0.00 | 0.00 | 0.00 | 9 | 1015.0 |
| 20260831232752 | 76 | 180 | 0.0 | 2.0 | 0.00 | 0.00 | 0.00 | 9 | 1015.2 |
| 20260831232242 | 76 | 135 | 1.0 | 2.0 | 0.00 | 0.00 | 0.00 | 9 | 1015.1 |
| 20260831231845 | 77 | 135 | 0.0 | 1.0 | 0.00 | 0.00 | 0.00 | 9 | 1015.2 |
| 20260831231410 | 77 | 0 | 0.0 | 0.0 | 0.00 | 0.00 | 0.00 | 9 | 1015.1 |
| 20260831231405 | 77 | 0 | 0.0 | 0.0 | 0.00 | 0.00 | 0.00 | 9 | 1015.1 |
| 20260831230937 | 77 | 0 | 0.0 | 0.0 | 0.00 | 0.00 | 0.00 | 9 | 1015.1 |
| 20260831230517 | 77 | 0 | 0.0 | 0.0 | 0.00 | 0.00 | 0.00 | 9 | 1015.1 |
| 20260831230052 | 77 | 0 | 0.0 | 0.0 | 0.00 | 0.00 | 0.00 | 9 | 1015.1 |
| 20260831225628 | 77 | 112 | 0.0 | 2.0 | 0.00 | 0.00 | 0.00 | 9 | 1015.1 |
| 20260831225626 | 77 | 112 | 0.0 | 2.0 | 0.00 | 0.00 | 0.00 | 9 | 1015.1 |
| 20260831225306 | 77 | 112 | 1.0 | 3.0 | 0.00 | 0.00 | 0.00 | 9 | 1015.1 |
| 20260831225246 | 77 | 112 | 1.0 | 2.0 | 0.00 | 0.00 | 0.00 | 9 | 1015.0 |
| 20260831224811 | 77 | 90 | 1.0 | 2.0 | 0.00 | 0.00 | 0.00 | 9 | 1015.2 |
| 20260831224359 | 77 | 90 | 2.0 | 3.0 | 0.00 | 0.00 | 0.00 | 9 | 1015.1 |
| 20260831223955 | 77 | 112 | 3.0 | 4.0 | 0.00 | 0.00 | 0.00 | 9 | 1015.0 |
| 20260831223554 | 77 | 90 | 2.0 | 2.0 | 0.00 | 0.00 | 0.00 | 9 | 1014.9 |
| 20260831223545 | 77 | 67 | 1.0 | 2.0 | 0.00 | 0.00 | 0.00 | 9 | 1015.0 |
| 20260831223128 | 77 | 90 | 2.0 | 3.0 | 0.00 | 0.00 | 0.00 | 9 | 1014.9 |
| 20260831222717 | 77 | 112 | 3.0 | 4.0 | 0.00 | 0.00 | 0.00 | 9 | 1015.0 |
| 20260831222433 | 77 | 90 | 3.0 | 4.0 | 0.00 | 0.00 | 0.00 | 9 | 1015.0 |
| 20260831221937 | 77 | 90 | 3.0 | 6.0 | 0.00 | 0.00 | 0.00 | 9 | 1015.0 |
| 20260831221519 | 77 | 90 | 3.0 | 4.0 | 0.00 | 0.00 | 0.00 | 9 | 1015.1 |
| 20260831221034 | 78 | 90 | 2.0 | 3.0 | 0.00 | 0.00 | 0.00 | 9 | 1014.8 |
| 20260831220618 | 78 | 112 | 3.0 | 4.0 | 0.00 | 0.00 | 0.00 | 9 | 1014.9 |
| 20260831220152 | 78 | 112 | 2.0 | 3.0 | 0.00 | 0.00 | 0.00 | 9 | 1014.8 |
| 20260831215658 | 78 | 112 | 3.0 | 4.0 | 0.00 | 0.00 | 0.00 | 9 | 1014.8 |
| 20260831215527 | 78 | 112 | 3.0 | 4.0 | 0.00 | 0.00 | 0.00 | 9 | 1014.8 |
| 20260831215052 | 78 | 112 | 5.0 | 8.0 | 0.00 | 0.00 | 0.00 | 9 | 1014.7 |
| 20260831214602 | 78 | 112 | 1.0 | 3.0 | 0.00 | 0.00 | 0.00 | 9 | 1014.6 |
| 20260831214130 | 78 | 67 | 3.0 | 4.0 | 0.00 | 0.00 | 0.00 | 9 | 1014.7 |
| 20260831213713 | 78 | 90 | 4.0 | 6.0 | 0.00 | 0.00 | 0.00 | 9 | 1014.6 |
| 20260831213248 | 78 | 90 | 4.0 | 6.0 | 0.00 | 0.00 | 0.00 | 9 | 1014.7 |
| 20260831212753 | 78 | 67 | 1.0 | 3.0 | 0.00 | 0.00 | 0.00 | 9 | 1014.6 |
| 20260831212306 | 78 | 67 | 1.0 | 3.0 | 0.00 | 0.00 | 0.00 | 9 | 1014.6 |
| 20260831211902 | 78 | 90 | 2.0 | 3.0 | 0.00 | 0.00 | 0.00 | 9 | 1014.6 |
| 20260831211422 | 78 | 90 | 3.0 | 6.0 | 0.00 | 0.00 | 0.00 | 9 | 1014.4 |
| 20260831211016 | 78 | 90 | 4.0 | 6.0 | 0.00 | 0.00 | 0.00 | 9 | 1014.5 |
| 20260831210602 | 78 | 90 | 4.0 | 6.0 | 0.00 | 0.00 | 0.00 | 9 | 1014.3 |
| 20260831210113 | 78 | 90 | 5.0 | 8.0 | 0.00 | 0.00 | 0.00 | 9 | 1014.4 |
| 20260831205700 | 78 | 90 | 4.0 | 6.0 | 0.00 | 0.00 | 0.00 | 9 | 1014.4 |
| 20260831205531 | 78 | 90 | 4.0 | 6.0 | 0.00 | 0.00 | 0.00 | 9 | 1014.4 |
| 20260831205049 | 78 | 90 | 5.0 | 6.0 | 0.00 | 0.00 | 0.00 | 9 | 1014.3 |
| 20260831204601 | 78 | 90 | 3.0 | 6.0 | 0.00 | 0.00 | 0.00 | 9 | 1014.3 |
| 20260831204129 | 78 | 112 | 6.0 | 9.0 | 0.00 | 0.00 | 0.00 | 9 | 1014.3 |
| 20260831203711 | 78 | 90 | 3.0 | 6.0 | 0.00 | 0.00 | 0.00 | 9 | 1014.3 |
| 20260831203246 | 78 | 90 | 3.0 | 6.0 | 0.00 | 0.00 | 0.00 | 9 | 1014.2 |
| 20260831202751 | 78 | 112 | 5.0 | 8.0 | 0.00 | 0.00 | 0.00 | 9 | 1014.3 |
| 20260831202316 | 78 | 135 | 6.0 | 6.0 | 0.00 | 0.00 | 0.00 | 9 | 1014.3 |
| 20260831201848 | 78 | 90 | 5.0 | 8.0 | 0.00 | 0.00 | 0.00 | 9 | 1014.1 |
| 20260831201437 | 78 | 90 | 6.0 | 8.0 | 0.00 | 0.00 | 0.00 | 9 | 1014.0 |
| 20260831201005 | 78 | 90 | 6.0 | 8.0 | 0.00 | 0.00 | 0.00 | 9 | 1014.0 |
| 20260831200603 | 78 | 90 | 6.0 | 10.0 | 0.00 | 0.00 | 0.00 | 9 | 1013.9 |
| 20260831200120 | 78 | 67 | 6.0 | 8.0 | 0.00 | 0.00 | 0.00 | 9 | 1013.9 |
| 20260831195655 | 78 | 112 | 6.0 | 8.0 | 0.00 | 0.00 | 0.00 | 9 | 1013.8 |
| 20260831195420 | 78 | 90 | 5.0 | 8.0 | 0.00 | 0.00 | 0.00 | 9 | 1013.7 |
| 20260831194941 | 78 | 67 | 4.0 | 6.0 | 0.00 | 0.00 | 0.00 | 9 | 1013.7 |
| 20260831194523 | 78 | 90 | 3.0 | 4.0 | 0.00 | 0.00 | 0.00 | 9 | 1013.5 |
| 20260831194038 | 78 | 112 | 3.0 | 6.0 | 0.00 | 0.00 | 0.00 | 9 | 1013.5 |
| 20260831193621 | 78 | 112 | 4.0 | 6.0 | 0.00 | 0.00 | 0.00 | 9 | 1013.4 |
| 20260831193156 | 78 | 90 | 7.0 | 12.0 | 0.00 | 0.00 | 0.00 | 9 | 1013.1 |
| 20260831192701 | 78 | 90 | 4.0 | 6.0 | 0.00 | 0.00 | 0.00 | 9 | 1013.0 |
| 20260831192239 | 78 | 90 | 4.0 | 6.0 | 0.00 | 0.00 | 0.00 | 9 | 1013.1 |
| 20260831191824 | 78 | 90 | 3.0 | 6.0 | 0.00 | 0.00 | 0.00 | 9 | 1013.0 |
| 20260831191412 | 78 | 112 | 5.0 | 8.0 | 0.00 | 0.00 | 0.00 | 9 | 1012.9 |
| 20260831191410 | 78 | 112 | 5.0 | 8.0 | 0.00 | 0.00 | 0.00 | 9 | 1012.9 |
| 20260831190940 | 78 | 90 | 6.0 | 9.0 | 0.00 | 0.00 | 0.00 | 8 | 1012.8 |
| 20260831190522 | 78 | 90 | 5.0 | 8.0 | 0.00 | 0.00 | 0.00 | 8 | 1012.9 |
| 20260831190055 | 78 | 90 | 4.0 | 6.0 | 0.00 | 0.00 | 0.00 | 8 | 1012.6 |
| 20260831185630 | 78 | 90 | 6.0 | 9.0 | 0.00 | 0.00 | 0.00 | 8 | 1012.8 |
| 20260831185448 | 78 | 112 | 8.0 | 11.0 | 0.00 | 0.00 | 0.00 | 8 | 1012.7 |
| 20260831185341 | 78 | 112 | 6.0 | 9.0 | 0.00 | 0.00 | 0.00 | 8 | 1012.7 |
| 20260831185016 | 78 | 90 | 6.0 | 8.0 | 0.00 | 0.00 | 0.00 | 8 | 1012.7 |
| 20260831184542 | 78 | 135 | 6.0 | 9.0 | 0.00 | 0.00 | 0.00 | 8 | 1012.6 |
| 20260831184445 | 78 | 135 | 7.0 | 11.0 | 0.00 | 0.00 | 0.00 | 8 | 1012.6 |
| 20260831184102 | 78 | 90 | 5.0 | 11.0 | 0.00 | 0.00 | 0.00 | 8 | 1012.4 |
| 20260831183617 | 78 | 112 | 5.0 | 9.0 | 0.00 | 0.00 | 0.00 | 8 | 1012.5 |
| 20260831183202 | 78 | 90 | 9.0 | 12.0 | 0.00 | 0.00 | 0.00 | 8 | 1012.5 |
| 20260831182752 | 78 | 67 | 6.0 | 9.0 | 0.00 | 0.00 | 0.00 | 8 | 1012.4 |
| 20260831182437 | 78 | 67 | 6.0 | 9.0 | 0.00 | 0.00 | 0.00 | 8 | 1012.3 |
| 20260831182309 | 78 | 67 | 6.0 | 9.0 | 0.00 | 0.00 | 0.00 | 8 | 1012.4 |
| 20260831181941 | 78 | 67 | 7.0 | 11.0 | 0.00 | 0.00 | 0.00 | 8 | 1012.4 |
| 20260831181523 | 78 | 112 | 6.0 | 9.0 | 0.00 | 0.00 | 0.00 | 8 | 1012.4 |
| 20260831181413 | 78 | 135 | 6.0 | 9.0 | 0.00 | 0.00 | 0.00 | 8 | 1012.4 |
| 20260831181109 | 78 | 90 | 5.0 | 6.0 | 0.00 | 0.00 | 0.00 | 8 | 1012.3 |
| 20260831180619 | 78 | 90 | 5.0 | 9.0 | 0.00 | 0.00 | 0.00 | 8 | 1012.4 |
| 20260831180554 | 78 | 90 | 6.0 | 8.0 | 0.00 | 0.00 | 0.00 | 8 | 1012.4 |
| 20260831180127 | 79 | 90 | 6.0 | 10.0 | 0.00 | 0.00 | 0.00 | 8 | 1012.3 |
| 20260831175703 | 79 | 135 | 7.0 | 10.0 | 0.00 | 0.00 | 0.00 | 8 | 1012.3 |
| 20260831175701 | 79 | 135 | 7.0 | 10.0 | 0.00 | 0.00 | 0.00 | 8 | 1012.3 |
| 20260831175328 | 79 | 90 | 7.0 | 10.0 | 0.00 | 0.00 | 0.00 | 8 | 1012.3 |
| 20260831174907 | 79 | 90 | 6.0 | 10.0 | 0.00 | 0.00 | 0.00 | 8 | 1012.3 |
| 20260831174440 | 79 | 112 | 8.0 | 11.0 | 0.00 | 0.00 | 0.00 | 8 | 1012.2 |
| 20260831174422 | 79 | 67 | 4.0 | 9.0 | 0.00 | 0.00 | 0.00 | 8 | 1012.3 |
| 20260831174353 | 79 | 112 | 8.0 | 11.0 | 0.00 | 0.00 | 0.00 | 8 | 1012.2 |
| 20260831173926 | 79 | 135 | 8.0 | 11.0 | 0.00 | 0.00 | 0.00 | 8 | 1012.2 |
| 20260831173517 | 79 | 112 | 9.0 | 13.0 | 0.00 | 0.00 | 0.00 | 8 | 1012.1 |
| 20260831173432 | 79 | 112 | 9.0 | 13.0 | 0.00 | 0.00 | 0.00 | 8 | 1012.1 |
| 20260831173024 | 80 | 90 | 9.0 | 10.0 | 0.00 | 0.00 | 0.00 | 8 | 1012.1 |
| 20260831172619 | 80 | 90 | 7.0 | 11.0 | 0.00 | 0.00 | 0.00 | 8 | 1012.2 |
| 20260831172616 | 80 | 90 | 7.0 | 11.0 | 0.00 | 0.00 | 0.00 | 8 | 1012.2 |
| 20260831172153 | 80 | 112 | 8.0 | 11.0 | 0.00 | 0.00 | 0.00 | 8 | 1012.1 |
| 20260831172047 | 80 | 135 | 9.0 | 12.0 | 0.00 | 0.00 | 0.00 | 8 | 1012.0 |
| 20260831171617 | 80 | 67 | 8.0 | 12.0 | 0.00 | 0.00 | 0.00 | 8 | 1012.1 |
| 20260831171258 | 80 | 112 | 8.0 | 11.0 | 0.00 | 0.00 | 0.00 | 8 | 1012.0 |
| 20260831171205 | 80 | 90 | 8.0 | 15.0 | 0.00 | 0.00 | 0.00 | 8 | 1012.0 |
| 20260831170758 | 80 | 112 | 9.0 | 15.0 | 0.00 | 0.00 | 0.00 | 8 | 1011.9 |
| 20260831170412 | 81 | 90 | 7.0 | 10.0 | 0.00 | 0.00 | 0.00 | 8 | 1012.1 |
| 20260831170341 | 81 | 90 | 7.0 | 10.0 | 0.00 | 0.00 | 0.00 | 8 | 1012.1 |
| 20260831165848 | 81 | 112 | 9.0 | 12.0 | 0.00 | 0.00 | 0.00 | 8 | 1012.0 |
| 20260831165453 | 81 | 67 | 8.0 | 11.0 | 0.00 | 0.00 | 0.00 | 8 | 1012.0 |
| 20260831165354 | 81 | 90 | 8.0 | 11.0 | 0.00 | 0.00 | 0.00 | 8 | 1012.0 |
| 20260831164907 | 81 | 112 | 9.0 | 13.0 | 0.00 | 0.00 | 0.00 | 8 | 1011.9 |
| 20260831164538 | 81 | 112 | 10.0 | 13.0 | 0.00 | 0.00 | 0.00 | 8 | 1012.1 |
| 20260831164456 | 81 | 67 | 9.0 | 12.0 | 0.00 | 0.00 | 0.00 | 8 | 1012.1 |
| 20260831164021 | 81 | 112 | 7.0 | 10.0 | 0.00 | 0.00 | 0.00 | 8 | 1012.2 |
| 20260831163538 | 82 | 67 | 9.0 | 13.0 | 0.00 | 0.00 | 0.00 | 7 | 1012.2 |
| 20260831163121 | 82 | 67 | 8.0 | 11.0 | 0.00 | 0.00 | 0.00 | 7 | 1012.1 |
| 20260831162713 | 82 | 90 | 11.0 | 15.0 | 0.00 | 0.00 | 0.00 | 7 | 1012.1 |
| 20260831162711 | 82 | 90 | 11.0 | 15.0 | 0.00 | 0.00 | 0.00 | 7 | 1012.1 |
| 20260831162549 | 82 | 90 | 11.0 | 15.0 | 0.00 | 0.00 | 0.00 | 7 | 1012.1 |
| 20260831162440 | 82 | 90 | 9.0 | 12.0 | 0.00 | 0.00 | 0.00 | 7 | 1012.3 |
| 20260831162023 | 82 | 67 | 6.0 | 10.0 | 0.00 | 0.00 | 0.00 | 7 | 1012.3 |
| 20260831161653 | 82 | 45 | 10.0 | 15.0 | 0.00 | 0.00 | 0.00 | 7 | 1012.4 |
| 20260831161537 | 82 | 90 | 11.0 | 17.0 | 0.00 | 0.00 | 0.00 | 7 | 1012.3 |
| 20260831161058 | 82 | 90 | 10.0 | 15.0 | 0.00 | 0.00 | 0.00 | 7 | 1012.2 |
| 20260831160702 | 83 | 112 | 9.0 | 15.0 | 0.00 | 0.00 | 0.00 | 7 | 1012.3 |
| 20260831160629 | 83 | 112 | 9.0 | 15.0 | 0.00 | 0.00 | 0.00 | 7 | 1012.3 |
| 20260831160156 | 84 | 67 | 9.0 | 12.0 | 0.00 | 0.00 | 0.00 | 7 | 1012.4 |
| 20260831155702 | 83 | 90 | 9.0 | 13.0 | 0.00 | 0.00 | 0.00 | 6 | 1012.4 |
| 20260831155354 | 83 | 67 | 9.0 | 13.0 | 0.00 | 0.00 | 0.00 | 6 | 1012.3 |
| 20260831154950 | 84 | 90 | 9.0 | 15.0 | 0.00 | 0.00 | 0.00 | 6 | 1012.3 |
| 20260831154534 | 84 | 90 | 9.0 | 15.0 | 0.00 | 0.00 | 0.00 | 6 | 1012.3 |
| 20260831154104 | 84 | 135 | 12.0 | 15.0 | 0.00 | 0.00 | 0.00 | 6 | 1012.3 |
| 20260831153648 | 84 | 90 | 8.0 | 12.0 | 0.00 | 0.00 | 0.00 | 6 | 1012.3 |
| 20260831153220 | 84 | 90 | 9.0 | 11.0 | 0.00 | 0.00 | 0.00 | 6 | 1012.3 |
| 20260831152755 | 84 | 112 | 12.0 | 15.0 | 0.00 | 0.00 | 0.00 | 6 | 1012.4 |
| 20260831152508 | 84 | 90 | 9.0 | 13.0 | 0.00 | 0.00 | 0.00 | 6 | 1012.5 |
| 20260831152420 | 84 | 90 | 9.0 | 13.0 | 0.00 | 0.00 | 0.00 | 6 | 1012.5 |
| 20260831151957 | 84 | 112 | 9.0 | 11.0 | 0.00 | 0.00 | 0.00 | 6 | 1012.3 |
| 20260831151519 | 84 | 45 | 9.0 | 15.0 | 0.00 | 0.00 | 0.00 | 6 | 1012.4 |
| 20260831151116 | 84 | 90 | 12.0 | 15.0 | 0.00 | 0.00 | 0.00 | 6 | 1012.5 |
| 20260831150646 | 84 | 112 | 10.0 | 15.0 | 0.00 | 0.00 | 0.00 | 6 | 1012.4 |
| 20260831150156 | 84 | 90 | 9.0 | 13.0 | 0.00 | 0.00 | 0.00 | 6 | 1012.5 |
| 20260831145704 | 84 | 90 | 11.0 | 15.0 | 0.00 | 0.00 | 0.00 | 7 | 1012.4 |
| 20260831145435 | 84 | 90 | 12.0 | 17.0 | 0.00 | 0.00 | 0.00 | 7 | 1012.5 |
| 20260831145359 | 84 | 90 | 12.0 | 15.0 | 0.00 | 0.00 | 0.00 | 7 | 1012.5 |
| 20260831144946 | 84 | 90 | 9.0 | 12.0 | 0.00 | 0.00 | 0.00 | 7 | 1012.4 |
| 20260831144558 | 85 | 90 | 7.0 | 12.0 | 0.00 | 0.00 | 0.00 | 7 | 1012.4 |
| 20260831144522 | 85 | 90 | 7.0 | 12.0 | 0.00 | 0.00 | 0.00 | 7 | 1012.4 |
| 20260831144103 | 84 | 67 | 9.0 | 15.0 | 0.00 | 0.00 | 0.00 | 7 | 1012.6 |
| 20260831143613 | 84 | 112 | 9.0 | 15.0 | 0.00 | 0.00 | 0.00 | 7 | 1012.6 |
| 20260831143549 | 84 | 112 | 7.0 | 11.0 | 0.00 | 0.00 | 0.00 | 7 | 1012.7 |
| 20260831143122 | 84 | 112 | 9.0 | 12.0 | 0.00 | 0.00 | 0.00 | 7 | 1012.5 |
| 20260831142656 | 84 | 90 | 9.0 | 15.0 | 0.00 | 0.00 | 0.00 | 7 | 1012.7 |
| 20260831142330 | 84 | 90 | 10.0 | 15.0 | 0.00 | 0.00 | 0.00 | 7 | 1012.5 |
| 20260831141939 | 84 | 90 | 11.0 | 15.0 | 0.00 | 0.00 | 0.00 | 7 | 1012.6 |
| 20260831141517 | 84 | 90 | 8.0 | 12.0 | 0.00 | 0.00 | 0.00 | 7 | 1012.5 |
| 20260831141451 | 84 | 90 | 8.0 | 12.0 | 0.00 | 0.00 | 0.00 | 7 | 1012.6 |
| 20260831141053 | 83 | 67 | 10.0 | 15.0 | 0.00 | 0.00 | 0.00 | 7 | 1012.7 |
| 20260831140603 | 84 | 67 | 9.0 | 15.0 | 0.00 | 0.00 | 0.00 | 7 | 1012.7 |
| 20260831140137 | 83 | 112 | 12.0 | 17.0 | 0.00 | 0.00 | 0.00 | 7 | 1012.8 |
| 20260831135712 | 83 | 67 | 9.0 | 13.0 | 0.00 | 0.00 | 0.00 | 7 | 1012.8 |
| 20260831135414 | 83 | 67 | 9.0 | 10.0 | 0.00 | 0.00 | 0.00 | 7 | 1012.8 |
| 20260831135231 | 83 | 90 | 13.0 | 18.0 | 0.00 | 0.00 | 0.00 | 7 | 1012.8 |
| 20260831134949 | 84 | 90 | 9.0 | 13.0 | 0.00 | 0.00 | 0.00 | 7 | 1012.8 |
| 20260831134504 | 83 | 90 | 12.0 | 15.0 | 0.00 | 0.00 | 0.00 | 7 | 1012.7 |
| 20260831134336 | 84 | 135 | 9.0 | 15.0 | 0.00 | 0.00 | 0.00 | 7 | 1012.9 |
| 20260831134044 | 84 | 67 | 11.0 | 13.0 | 0.00 | 0.00 | 0.00 | 7 | 1012.8 |